Location: Eisenbergeramt
(48.5500°N, 15.4833°E)
Time: 21:06:52
(UTC+00:00)

Daily predictions for brighter satellites

Satellite Brightness Start Highest point End
(mag) Time Altitude Azimuth Time Altitude Azimuth Time Altitude Azimuth
Cosmos 44 3.8 16:14:50 10° S 16:19:00 35° ESE 16:23:02 10° NE
Cosmos-2242 3.4 16:15:57 10° N 16:20:04 42° ENE 16:24:08 10° SSE
Starlink D 3.9 16:17:22 10° WNW 16:20:22 35° N 16:23:23 10° ENE
Starlink S 3.9 16:19:28 10° WNW 16:22:28 35° N 16:25:28 10° ENE
Cosmos 724 4.3 16:17:48 10° SSW 16:23:45 83° SE 16:29:39 10° NE
Starlink C 3.9 16:21:31 10° WNW 16:24:31 35° N 16:27:32 10° ENE
ERBS 2.5 16:21:51 10° WSW 16:25:10 65° NNW 16:28:28 10° NE
Starlink E 3.9 16:23:38 10° WNW 16:26:38 35° N 16:29:38 10° ENE
Meteor 2-1 Rocket 4.3 16:23:04 10° NNW 16:28:37 86° WSW 16:34:11 10° S
Starlink J 3.9 16:25:44 10° WNW 16:28:45 35° N 16:31:40 11° ENE
Cosmos 1703 4.4 16:26:47 10° SE 16:30:03 25° E 16:33:19 10° NE
SL-8 Rocket 4.3 16:24:34 10° SSE 16:30:31 46° E 16:36:26 10° NNE
Cosmos 1300 4.2 16:27:03 10° NNW 16:30:40 41° W 16:34:16 10° SSW
Cosmos 1812 Rocket 4.2 16:26:21 10° NNW 16:30:47 63° W 16:35:12 10° S
Starlink V 3.9 16:27:50 10° WNW 16:30:51 35° N 16:33:41 11° ENE
Starlink AS 3.8 16:28:13 10° WNW 16:30:55 32° N 16:33:25 11° ENE
Starlink BA 3.8 16:28:27 10° WNW 16:31:08 32° N 16:33:37 11° ENE
Starlink AU 3.8 16:28:40 10° WNW 16:31:21 32° N 16:33:50 11° ENE
Starlink AT 3.8 16:28:54 10° WNW 16:31:35 32° N 16:34:03 11° ENE
Starlink BB 3.8 16:29:07 10° WNW 16:31:49 32° N 16:34:16 12° ENE
Starlink BC 3.8 16:29:20 10° WNW 16:32:01 32° N 16:34:28 12° ENE
Starlink BK 3.8 16:29:34 10° WNW 16:32:15 32° N 16:34:42 12° ENE
Starlink AY 3.8 16:29:48 10° WNW 16:32:30 32° N 16:34:55 12° ENE
Starlink AW 3.8 16:30:01 10° WNW 16:32:43 32° N 16:35:08 12° ENE
Starlink BJ 3.8 16:30:15 10° WNW 16:32:56 32° N 16:35:21 12° ENE
Starlink H 3.9 16:29:58 10° WNW 16:32:58 35° N 16:35:43 12° ENE
Starlink AV 3.8 16:30:29 10° WNW 16:33:10 32° N 16:35:35 12° ENE
Starlink BD 3.8 16:30:42 10° WNW 16:33:23 32° N 16:35:47 12° ENE
Starlink BE 3.8 16:30:55 10° WNW 16:33:37 32° N 16:36:02 12° ENE
Starlink BM 3.8 16:31:10 10° WNW 16:33:52 32° N 16:36:14 12° ENE
Starlink AX 3.8 16:31:24 10° WNW 16:34:05 32° N 16:36:27 12° ENE
Starlink BH 3.8 16:31:36 10° WNW 16:34:18 32° N 16:36:39 12° ENE
Starlink AZ 3.8 16:31:50 10° WNW 16:34:31 32° N 16:36:51 12° ENE
Starlink BG 3.8 16:32:03 10° WNW 16:34:44 32° N 16:37:05 12° ENE
Starlink BF 3.8 16:32:16 10° WNW 16:34:58 32° N 16:37:17 12° ENE
ATLAS 5 CENTAUR R/B 3.7 16:31:40 10° WNW 16:35:02 19° NNW 16:38:44 10° NNE
Starlink F 3.9 16:32:05 10° WNW 16:35:06 35° N 16:37:45 12° ENE
Starlink BL 3.8 16:32:28 10° WNW 16:35:11 32° N 16:37:32 13° ENE
Starlink AH 3.8 16:32:44 10° WNW 16:35:25 32° N 16:37:44 13° ENE
Starlink AQ 3.8 16:32:47 10° WNW 16:35:30 32° N 16:37:49 13° ENE
Starlink AC 3.8 16:32:57 10° WNW 16:35:39 32° N 16:37:57 13° ENE
Cosmos 2237 Rocket 3.0 16:30:19 10° NW 16:35:49 57° WSW 16:41:18 10° S
Starlink X 3.8 16:33:11 10° WNW 16:35:53 32° N 16:38:10 13° ENE
Starlink AE 3.8 16:33:21 10° WNW 16:36:06 32° N 16:38:25 13° ENE
Starlink Z 3.8 16:33:37 10° WNW 16:36:18 32° N 16:38:34 13° ENE
Starlink AK 3.8 16:33:51 10° WNW 16:36:33 32° N 16:38:48 13° ENE
Starlink AL 3.8 16:34:06 10° WNW 16:36:48 32° N 16:39:03 13° ENE
Starlink AD 3.8 16:34:20 10° WNW 16:37:01 32° N 16:39:15 13° ENE
Starlink G 3.9 16:34:12 10° WNW 16:37:13 35° N 16:39:47 13° ENE
Starlink Y 3.8 16:34:46 10° WNW 16:37:28 32° N 16:39:41 13° ENE
Starlink AG 3.8 16:35:00 10° WNW 16:37:42 32° N 16:39:53 13° ENE
CSL-04 Rocket 4.3 16:32:54 10° SE 16:37:53 36° ENE 16:42:54 10° N
Starlink W 3.8 16:35:10 10° WNW 16:37:54 32° N 16:40:08 13° ENE
Starlink AJ 3.8 16:35:26 10° WNW 16:38:07 32° N 16:40:18 13° ENE
ATLAS CENTAUR R/B 4.2 16:32:23 10° W 16:38:09 61° NNW 16:53:40 11° ENE
Starlink AM 3.8 16:35:54 10° WNW 16:38:36 32° N 16:40:46 14° ENE
Starlink AP 3.8 16:36:06 10° WNW 16:38:48 32° N 16:40:58 14° ENE
CZ-4B R/B 4.1 16:37:03 10° NNW 16:38:48 14° WNW 16:40:33 10° W
Starlink AA 3.8 16:36:21 10° WNW 16:39:02 32° N 16:41:11 14° ENE
Starlink AF 3.8 16:36:33 10° WNW 16:39:16 32° N 16:41:24 14° ENE
Starlink L 3.9 16:36:19 10° WNW 16:39:20 35° N 16:41:49 14° ENE
Starlink AB 3.8 16:36:48 10° WNW 16:39:30 32° N 16:41:38 14° ENE
Starlink AN 3.8 16:37:03 10° WNW 16:39:44 32° N 16:41:51 14° ENE
Starlink A 3.9 16:38:27 10° WNW 16:41:28 35° N 16:43:52 14° ENE
YAOGAN 1 3.2 16:38:04 10° SE 16:41:57 33° ENE 16:45:51 10° N
Cosmos 2251 Rocket 3.6 16:37:05 10° NNW 16:42:18 54° ENE 16:47:30 10° SE
SMAP 3.9 16:37:56 10° S 16:42:31 57° W 16:47:07 10° NNW
Starlink R 3.9 16:40:36 10° WNW 16:43:37 35° N 16:45:55 15° ENE
Cosmos 1455 2.2 16:39:57 10° N 16:43:43 56° ENE 16:47:25 10° SSE
Starlink K 3.9 16:42:42 10° WNW 16:45:44 35° N 16:47:57 16° ENE
H-2A R/B 3.7 16:46:35 13° ENE 16:47:26 13° NE 16:49:45 10° NNE
Starlink M 3.9 16:44:48 10° WNW 16:47:50 35° N 16:49:58 16° ENE
Cosmos 2341 Rocket 4.0 16:43:40 10° S 16:50:03 83° E 16:56:25 10° N
Cosmos 1939 Rocket 3.6 16:49:21 10° SE 16:52:47 30° ENE 16:56:19 10° N
USA 32 4.1 16:48:37 10° S 16:53:50 88° W 16:59:07 10° N
CZ-2D R/B 3.9 16:54:12 10° SE 16:57:38 32° ENE 17:01:06 10° N
Envisat 3.4 16:53:22 10° S 16:58:25 69° WSW 17:03:32 10° NNW
SL-16 R/B 2.2 16:55:32 10° NNW 17:01:16 88° WSW 17:06:56 10° SSE
Iridium 96 4.1 17:03:02 10° N 17:05:26 60° W 17:07:56 10° S
Cosmos 1339 Rocket 4.4 16:59:32 10° N 17:05:40 83° E 17:11:49 10° S
Meteor 2-10 Rocket 3.5 17:00:35 10° NNW 17:05:54 87° W 17:10:59 10° S
USA 267 3.4 17:01:06 13° NE 17:06:58 75° NNW 17:13:29 10° WSW
Cosmos 864 Rocket 4.4 17:00:59 10° S 17:07:01 64° E 17:13:06 10° NNE
Cosmos 2082 3.6 17:04:54 10° SSW 17:10:29 76° ESE 17:16:09 10° NNE
Cosmos 2219 4.0 17:05:37 10° SW 17:11:03 49° NW 17:16:33 10° NNE
Cosmos 1953 Rocket 3.6 17:07:45 10° S 17:12:15 90° ESE 17:16:46 10° N
COSMO-SKYMED 1 2.5 17:09:02 10° NNE 17:13:25 79° ESE 17:17:45 10° S
Cosmos 2218 Rocket 4.0 17:07:27 10° S 17:13:48 78° E 17:20:14 10° NNE
Cosmos 1603 4.1 17:08:41 10° NNW 17:14:04 41° NE 17:18:32 14° ESE
Cosmos 1842 Rocket 3.8 17:10:51 10° N 17:15:11 47° ENE 17:19:31 10° SSE
Cosmos 2297 Rocket 2.7 17:10:55 10° SW 17:16:31 60° WNW 17:22:09 10° NNE
Cosmos 1758 Rocket 4.5 17:12:20 10° SSW 17:16:31 49° WNW 17:20:45 10° N
Cosmos 407 Rocket 4.2 17:12:53 10° N 17:17:40 32° NE 17:20:07 22° E
Meteor 1-27 4.2 17:12:58 10° N 17:18:28 55° ENE 17:23:55 10° SSE
SL-8 R/B 3.7 17:13:47 10° WSW 17:18:36 74° SSE 17:21:14 27° E
Meteor 1-11 4.2 17:15:27 10° S 17:20:54 58° E 17:26:23 10° NNE
ARGOS 4.2 17:23:56 23° ENE 17:23:56 23° ENE 17:28:05 10° N
Cosmos 2263 Rocket 3.3 17:20:32 10° SSE 17:24:32 22° ESE 17:24:32 22° ESE
Cosmos 1959 Rocket 4.4 17:19:07 10° S 17:25:16 89° W 17:31:26 10° N
Starlink AR 3.3 17:23:30 10° WNW 17:25:52 35° N 17:25:52 35° N
Meteor 2-12 Rocket 4.5 17:22:00 10° SSE 17:27:51 55° E 17:33:44 10° NNE
Cosmos 2227 Rocket 2.9 17:24:16 10° SW 17:29:47 53° WNW 17:35:21 10° NNE
NOAA 11 4.1 17:25:25 10° SSE 17:30:55 86° ENE 17:36:27 10° NNW
ISS -3.6 17:27:46 10° W 17:31:08 67° NNW 17:31:56 47° NE
CZ-4 R/B 1.9 17:28:19 10° S 17:32:22 62° WSW 17:36:32 10° NNW
Starlink T 3.5 17:30:01 10° WNW 17:33:04 42° NNE 17:33:12 41° NNE
Starlink N 3.5 17:31:55 10° WNW 17:34:58 42° NNE 17:35:02 42° NNE
ATLAS CENTAUR R/B 1.9 17:32:27 10° NW 17:36:25 55° WSW 17:40:04 10° SSE
Starlink Q 3.5 17:34:04 10° WNW 17:37:06 43° NNE 17:37:06 43° NNE
Cosmos 1328 4.4 17:34:05 10° SSW 17:38:02 57° WNW 17:42:01 10° N
Shenzhou-11 Module 3.5 17:36:20 10° WSW 17:38:34 23° S 17:38:37 23° S
Starlink P 3.5 17:36:03 10° WNW 17:39:01 43° N 17:39:01 43° N
Starlink U 3.5 17:38:02 10° WNW 17:40:56 44° N 17:40:56 44° N
USA 116 2.9 17:40:56 60° NNE 17:41:26 85° ESE 17:44:32 10° SSW
CZ-2C R/B 4.1 17:41:56 29° NE 17:41:56 29° NE 17:46:16 10° N
Ariane Rocket 3.1 17:36:53 10° SE 17:41:48 53° ENE 17:46:45 10° N
Cosmos 2366 rocket 4.2 17:35:58 10° SSW 17:42:11 72° W 17:48:31 10° N
USA 234 4.4 17:36:43 10° SSE 17:42:51 43° SW 17:49:01 10° WNW
Starlink B 3.6 17:40:03 10° WNW 17:42:52 44° N 17:42:52 44° N
Cosmos 1943 3.3 17:39:19 10° NNW 17:44:51 52° NE 17:47:06 33° ESE
Meteor 2-2 Rocket 4.3 17:44:05 10° N 17:50:08 70° ENE 17:56:07 10° SSE
Cosmos 2221 2.3 17:46:51 10° N 17:51:09 81° E 17:55:27 10° SSE
Starlink D 4.0 17:53:45 10° WNW 17:56:06 39° NNW 17:56:06 39° NNW
Starlink S 4.1 17:55:50 10° WNW 17:58:07 37° NW 17:58:07 37° NW
ADEOS Rocket 3.3 17:52:21 10° NNE 17:59:04 66° ESE 18:06:26 10° S
Cosmos 44 4.3 17:55:58 10° WSW 18:00:10 37° NW 18:02:12 24° N
SJ-11-01 4.2 17:59:34 49° SE 18:00:36 63° ENE 18:05:17 10° N
Starlink C 4.2 17:57:53 10° WNW 18:00:05 36° NW 18:00:05 36° NW
Cosmos 614 Rocket 3.8 17:55:53 10° NNW 18:01:06 73° ENE 18:03:06 38° SE
ERBS 4.2 17:59:19 10° WNW 18:01:43 21° NNW 18:01:43 21° NNW
Starlink E 4.3 18:00:00 10° WNW 18:02:07 35° NW 18:02:07 35° NW
USA 238 DEB 4.0 17:57:37 10° S 18:03:43 40° ESE 18:03:59 40° ESE
USA 238 4.0 17:57:46 10° S 18:03:51 39° ESE 18:04:02 39° ESE
ATLAS 5 CENTAUR R/B 3.6 18:00:05 10° NW 18:04:41 67° NE 18:15:54 20° ESE
Starlink J 4.4 18:02:06 10° WNW 18:04:09 33° NW 18:04:09 33° NW
IRS-1A Rocket 4.1 18:00:47 10° SSE 18:06:32 79° ENE 18:12:10 10° NNW
Starlink V 4.5 18:04:11 10° WNW 18:06:09 32° NW 18:06:09 32° NW
MOS 1 4.2 18:07:07 31° SE 18:09:52 68° ENE 18:15:32 10° N
Cosmos 1023 Rocket 4.4 18:09:50 10° NNW 18:14:53 64° NE 18:14:53 64° NE
ATLAS 5 CENTAUR R/B 3.9 18:18:25 10° NNW 18:21:38 17° N 18:21:38 17° N
Cosmos 1140 Rocket 3.5 18:20:14 10° NNW 18:24:58 68° NNE 18:24:58 68° NNE
H-2A R/B 2.4 18:27:12 51° N 18:27:12 51° N 18:31:07 10° N
NOSS 3-3 (A) 4.4 18:26:55 10° NW 18:34:21 83° NE 18:36:30 54° SE
NOSS 3-3 (C) 4.4 18:27:01 10° NW 18:34:27 83° NE 18:36:33 54° SE
Cosmos 44 Rocket 3.9 18:37:27 10° SW 18:41:15 53° WSW 18:41:15 53° WSW
USA 267 3.8 18:48:27 42° NNE 18:49:33 45° N 18:55:41 10° WNW
Cosmos 2227 4.4 18:45:09 10° SW 18:50:52 69° WNW 18:50:52 69° WNW
ARGOS 4.1 19:05:26 42° NW 19:05:26 42° NW 19:09:08 10° NNW
BREEZE-M DEB (TANK) 4.3 18:40:49 10° WNW 19:07:09 74° SSW 19:08:17 65° SSE
Cosmos 2263 Rocket 3.1 19:02:37 10° SW 19:06:18 41° SW 19:06:18 41° SW
